GW5874 Weather Reports


time (UTC)temp
F
wind
direction
speed
knots
gust
knots
rain 1hr
in
rain 24hr
in
rain mn
in
humidity
%
barometer
mb
20260505153129 57 314 0.9 0.9 0.00 0.84 0.84 95 1006.3
20260505152625 57 284 2.6 3.5 0.00 0.84 0.84 95 1006.2
20260505152121 57 134 4.3 4.3 0.00 0.84 0.84 95 1006.2
20260505151617 58 71 0.0 0.9 0.00 0.84 0.84 95 1006.1
20260505151114 58 287 0.9 0.9 0.00 0.84 0.84 96 1006.1
20260505150610 58 231 0.0 0.9 0.00 0.84 0.84 96 1006.1
20260505150108 58 345 3.5 4.3 0.00 0.84 0.84 96 1005.9
20260505140536 60 81 0.9 0.9 0.00 0.84 0.84 99 1005.9
20260505124949 60 102 0.9 0.9 0.00 0.84 0.84 99 1005.7
20260505124446 60 78 0.0 0.0 0.00 0.84 0.84 99 1005.6
20260505123942 60 195 1.7 2.6 0.07 0.84 0.84 99 1005.6
20260505123439 60 18 0.9 0.9 0.07 0.84 0.84 99 1005.7
20260505122935 60 340 0.0 0.9 0.00 0.83 0.83 99 1005.6
20260505122432 60 265 0.9 0.9 0.00 0.83 0.83 99 1005.6
20260505121929 60 291 0.0 0.0 0.00 0.83 0.83 99 1005.3
20260505121426 60 64 1.7 3.5 0.05 0.83 0.83 99 1005.0
20260505120922 60 201 1.7 2.6 0.05 0.83 0.83 99 1005.2
20260505120418 60 239 0.0 0.0 0.00 0.82 0.82 99 1005.0
20260505115917 60 215 0.0 0.9 0.00 0.82 0.82 99 1005.0
20260505115414 60 305 0.0 0.0 0.00 0.82 0.82 99 1005.3
20260505114912 60 285 0.9 2.6 0.00 0.82 0.82 99 1004.9
20260505114408 60 104 3.5 6.1 0.00 0.82 0.82 99 1004.7
20260505113905 60 342 0.9 0.9 0.00 0.82 0.82 99 1004.7
20260505113402 60 292 0.9 0.9 0.00 0.82 0.82 99 1004.8
20260505112857 61 220 2.6 3.5 0.00 0.82 0.82 99 1004.7
20260505112355 60 7 0.9 0.9 0.00 0.82 0.82 99 1004.4
20260505111850 61 258 0.0 0.0 0.00 0.82 0.82 99 1004.4
20260505111346 61 313 0.9 0.9 0.00 0.82 0.82 99 1004.4
20260505110842 60 329 1.7 2.6 0.00 0.82 0.82 99 1004.5
20260505110340 61 273 0.9 0.9 0.00 0.82 0.82 99 1004.5
20260505101815 61 200 3.5 4.3 0.00 0.82 0.82 99 1004.4
20260505101310 61 204 1.7 2.6 0.00 0.82 0.82 99 1004.4
20260505100806 61 343 0.0 0.9 0.00 0.82 0.82 99 1004.5
20260505100303 61 202 2.6 2.6 0.00 0.82 0.82 99 1004.5
20260505095759 61 164 1.7 3.5 0.00 0.82 0.82 99 1004.5
20260505095257 61 172 1.7 2.6 0.00 0.82 0.82 99 1004.4
20260505094752 61 200 0.0 0.0 0.00 0.82 0.82 99 1004.6
20260505094249 61 205 3.5 3.5 0.00 0.82 0.82 99 1004.9
20260505093744 61 206 2.6 3.5 0.00 0.82 0.82 99 1005.0
20260505093242 61 208 1.7 2.6 0.07 0.82 0.82 99 1005.0
20260505092739 61 161 1.7 2.6 0.12 0.82 0.82 99 1005.0
20260505092238 61 183 2.6 2.6 0.05 0.81 0.81 99 1005.4
20260505091734 61 337 1.7 2.6 0.00 0.80 0.80 99 1005.4
20260505091233 61 270 1.7 2.6 0.00 0.80 0.80 98 1005.3
20260505090730 61 212 1.7 2.6 0.07 0.80 0.80 98 1005.3
20260505090228 61 146 0.9 0.9 0.07 0.80 0.80 98 1005.2
20260505085725 61 132 2.6 3.5 0.05 0.79 0.79 98 1005.2
20260505085223 61 202 1.7 2.6 0.12 0.79 0.79 98 1005.1
20260505084720 61 205 1.7 2.6 0.19 0.78 0.78 98 1004.9
20260505084219 61 52 0.9 3.5 0.12 0.77 0.77 98 1005.0
20260505083716 61 160 3.5 4.3 0.12 0.75 0.75 98 1005.1
20260505083213 61 239 0.0 0.9 0.12 0.75 0.75 98 1005.0
20260505082708 61 304 0.9 0.9 0.00 0.73 0.73 98 1005.4
20260505082206 61 179 3.5 3.5 0.42 0.73 0.73 98 1005.7
20260505081701 61 221 0.9 0.9 0.78 0.73 0.73 98 1005.7
20260505081159 61 258 0.0 0.0 0.54 0.67 0.67 98 1005.6
20260505080656 61 165 1.7 2.6 0.19 0.60 0.60 98 1005.9
20260505080152 61 227 0.9 0.9 0.24 0.58 0.58 98 1006.3
20260505075648 61 279 1.7 2.6 0.24 0.57 0.57 97 1006.4
20260505075145 61 348 1.7 2.6 0.07 0.53 0.53 97 1005.2
20260505074642 61 227 0.9 0.9 0.19 0.53 0.53 97 1005.6
20260505074139 61 127 0.0 0.9 0.12 0.52 0.52 97 1005.1
20260505073637 61 103 0.9 0.9 0.12 0.50 0.50 97 1005.7
20260505073135 61 221 0.9 0.9 0.17 0.50 0.50 97 1005.9
20260505072630 61 167 1.7 2.6 0.19 0.49 0.49 97 1005.8
20260505072127 61 121 1.7 2.6 0.12 0.47 0.47 97 1006.4
20260505071622 61 263 0.0 0.9 0.24 0.46 0.46 96 1007.1
20260505071120 61 284 0.9 0.9 0.50 0.45 0.45 96 1006.5
20260505070617 61 204 0.0 0.9 0.59 0.42 0.42 96 1006.3
20260505070113 61 232 0.9 0.9 0.59 0.38 0.38 96 1007.5
20260505065609 61 291 0.0 0.9 0.54 0.32 0.32 96 1007.6
20260505065106 61 285 0.9 0.9 0.42 0.27 0.27 95 1007.8
20260505064603 61 280 1.7 2.6 0.66 0.24 0.24 95 1007.2
20260505064102 61 284 1.7 3.5 0.78 0.20 0.20 94 1007.3
20260505063558 61 295 1.7 2.6 0.35 0.12 0.12 93 1007.5
20260505063054 62 292 1.7 2.6 0.12 0.07 0.07 93 1007.3
20260505062551 62 340 2.6 2.6 0.19 0.06 0.06 91 1006.5
20260505062048 62 274 0.0 0.9 0.19 0.05 0.05 90 1005.9
20260505061546 62 170 3.5 4.3 0.19 0.04 0.04 89 1005.2
20260505061043 63 107 2.6 3.5 0.05 0.02 0.02 86 1005.6
20260505060541 64 229 3.5 3.5 0.00 0.01 0.01 82 1005.5
20260505060037 64 211 0.9 0.9 0.07 0.01 0.01 81 1005.1
20260505055532 64 196 4.3 6.1 0.07 0.01 0.01 80 1005.0
20260505055030 65 185 2.6 4.3 0.00 0.00 0.00 79 1004.5
20260505054527 65 85 0.9 2.6 0.00 0.00 0.00 79 1004.5
20260505054025 65 292 0.9 2.6 0.00 0.00 0.00 78 1004.6
20260505053522 65 173 4.3 4.3 0.00 0.00 0.00 76 1004.9
20260505053018 66 220 1.7 2.6 0.00 0.00 0.00 75 1005.0
20260505052516 66 84 1.7 2.6 0.00 0.00 0.00 73 1005.0
20260505052013 67 88 1.7 3.5 0.00 0.00 0.00 74 1005.4
20260505051509 67 145 5.2 6.1 0.00 0.00 0.00 70 1005.3
20260505051008 67 212 1.7 3.5 0.00 0.00 0.00 69 1005.6
20260505050506 67 204 6.1 7.0 0.00 0.00 0.00 69 1005.2
20260505041433 68 45 3.5 4.3 0.00 0.00 0.00 68 1005.1
20260505040931 68 157 5.2 7.0 0.00 0.00 0.00 68 1005.3
20260505040428 68 156 2.6 3.5 0.00 0.00 0.00 69 1005.3
20260505035924 67 157 1.7 2.6 0.00 0.00 0.00 69 1005.5
20260505035421 67 195 2.6 4.3 0.00 0.00 0.00 71 1005.5
20260505034918 67 152 3.5 4.3 0.00 0.00 0.00 70 1005.6
20260505034414 67 185 0.9 0.9 0.00 0.00 0.00 71 1005.9
20260505033912 67 196 1.7 2.6 0.00 0.00 0.00 71 1005.8
20260505033408 67 194 1.7 2.6 0.00 0.00 0.00 71 1005.9
20260505032907 67 225 0.0 0.9 0.00 0.00 0.00 71 1006.1
20260505032402 67 200 1.7 3.5 0.00 0.00 0.00 72 1006.1
20260505031859 67 215 0.0 0.9 0.00 0.00 0.00 71 1006.0
20260505031356 68 233 0.0 0.0 0.00 0.00 0.00 70 1005.9
20260505030854 67 191 1.7 2.6 0.00 0.00 0.00 70 1005.9
20260505030349 67 203 0.9 0.9 0.00 0.00 0.00 71 1006.0
20260505025845 67 196 1.7 2.6 0.00 0.00 0.00 70 1005.9
20260505025343 67 196 0.9 0.9 0.00 0.00 0.00 70 1006.1
20260505024841 67 190 1.7 2.6 0.00 0.00 0.00 70 1005.8
20260505024339 66 221 0.9 0.9 0.00 0.00 0.00 71 1005.9
20260505023835 66 176 0.9 0.9 0.00 0.00 0.00 73 1005.8
20260505023332 67 230 0.0 0.0 0.00 0.00 0.00 73 1005.5
20260505022830 68 198 0.0 0.9 0.00 0.00 0.00 69 1005.7
20260505022326 68 219 0.0 0.0 0.00 0.00 0.00 70 1005.6
20260505021824 68 219 1.7 2.6 0.00 0.00 0.00 69 1005.6
20260505021320 68 102 0.0 0.9 0.00 0.00 0.00 69 1005.7
20260505020816 68 210 0.9 0.9 0.00 0.00 0.00 70 1005.5
20260505020312 68 132 1.7 2.6 0.00 0.00 0.00 70 1005.7
20260505015809 68 198 1.7 2.6 0.00 0.00 0.00 68 1005.3
20260505015306 68 218 0.9 0.9 0.00 0.00 0.00 68 1005.5
20260505014803 68 182 1.7 2.6 0.00 0.00 0.00 67 1005.4
20260505014300 69 144 2.6 2.6 0.00 0.00 0.00 67 1005.4
20260505013757 69 195 0.9 0.9 0.00 0.00 0.00 67 1005.3
20260505013254 69 200 1.7 2.6 0.00 0.00 0.00 66 1005.2
20260505012752 69 234 0.9 0.9 0.00 0.00 0.00 65 1005.4
20260505012249 70 217 1.7 2.6 0.00 0.00 0.00 65 1005.5
20260505011745 70 172 1.7 2.6 0.00 0.00 0.00 64 1005.3
20260505011242 70 107 1.7 2.6 0.00 0.00 0.00 63 1005.2
20260505010738 71 145 0.9 0.9 0.00 0.00 0.00 63 1005.1
20260505010234 71 162 1.7 2.6 0.00 0.00 0.00 62 1005.2
20260505005731 71 212 0.9 2.6 0.00 0.00 0.00 61 1004.9
20260505005228 72 189 2.6 2.6 0.00 0.00 0.00 61 1005.0
20260505004725 72 166 2.6 3.5 0.00 0.00 0.00 59 1005.1
20260505004221 72 239 0.9 0.9 0.00 0.00 0.00 59 1005.0
20260505003719 73 206 2.6 3.5 0.00 0.00 0.00 58 1005.0
20260505003217 73 242 1.7 2.6 0.00 0.00 0.00 59 1004.9
20260505002712 73 178 1.7 3.5 0.00 0.00 0.00 59 1005.0
20260505002210 73 191 4.3 6.1 0.00 0.00 0.00 58 1004.8
20260505001707 73 222 3.5 4.3 0.00 0.00 0.00 57 1004.9
20260505001205 74 186 7.0 8.7 0.00 0.00 0.00 57 1005.1
20260505000702 74 256 2.6 3.5 0.00 0.00 0.00 57 1005.2
20260505000200 74 195 6.1 8.7 0.00 0.00 0.00 56 1005.1
20260504235656 74 201 3.5 3.5 0.00 0.00 0.00 56 1004.9
20260504235152 75 180 5.2 8.7 0.00 0.00 0.00 55 1005.0
20260504234650 75 218 5.2 7.0 0.00 0.00 0.00 55 1004.9
20260504234147 75 183 7.0 9.6 0.00 0.00 0.00 54 1004.9
20260504233642 76 230 8.7 9.6 0.00 0.00 0.00 53 1004.9
20260504233138 76 188 1.7 2.6 0.00 0.00 0.00 55 1004.9
20260504232637 76 213 6.1 7.0 0.00 0.00 0.00 52 1004.8
20260504232133 77 244 11.3 20.0 0.00 0.00 0.00 51 1004.9
20260504231630 77 247 5.2 8.7 0.00 0.00 0.00 54 1004.8
20260504231126 77 191 2.6 3.5 0.00 0.00 0.00 52 1004.7
20260504230622 77 206 8.7 12.2 0.00 0.00 0.00 51 1004.7
20260504230121 77 216 3.5 3.5 0.00 0.00 0.00 52 1004.7
20260504225619 77 253 4.3 4.3 0.00 0.00 0.00 51 1004.8
20260504225115 77 180 7.8 12.2 0.00 0.00 0.00 51 1004.6
20260504224612 78 187 2.6 4.3 0.00 0.00 0.00 52 1004.7
20260504224109 77 220 5.2 6.1 0.00 0.00 0.00 51 1004.6
20260504223606 78 158 7.8 9.6 0.00 0.00 0.00 52 1004.6
20260504223101 78 213 2.6 3.5 0.00 0.00 0.00 52 1004.6
20260504222558 78 217 4.3 4.3 0.00 0.00 0.00 51 1004.6
20260504222056 77 213 4.3 6.1 0.00 0.00 0.00 52 1004.6
20260504221553 77 162 6.1 7.0 0.00 0.00 0.00 51 1004.8
20260504221049 77 224 2.6 3.5 0.00 0.00 0.00 53 1004.7
20260504220546 77 224 3.5 7.0 0.00 0.00 0.00 50 1004.9
20260504220043 77 201 9.6 13.0 0.00 0.00 0.00 50 1004.8
20260504215539 77 197 15.6 20.0 0.00 0.00 0.00 49 1004.7
20260504215037 78 228 9.6 12.2 0.00 0.00 0.00 48 1004.9
20260504214533 78 237 4.3 6.1 0.00 0.00 0.00 49 1004.8
20260504214029 78 213 3.5 3.5 0.00 0.00 0.00 50 1004.6
20260504213526 78 221 3.5 4.3 0.00 0.00 0.00 51 1004.9
20260504213023 78 213 10.4 15.6 0.00 0.00 0.00 48 1004.9
20260504212519 78 193 5.2 6.1 0.00 0.00 0.00 52 1005.0
20260504212017 78 209 7.0 8.7 0.00 0.00 0.00 50 1005.0
20260504211513 79 194 8.7 10.4 0.00 0.00 0.00 50 1005.1
20260504211011 78 197 4.3 6.1 0.00 0.00 0.00 51 1005.3
20260504210508 78 198 4.3 6.1 0.00 0.00 0.00 51 1005.3
20260504210004 78 192 7.0 13.0 0.00 0.00 0.00 50 1005.2
20260504205502 79 238 8.7 12.2 0.00 0.00 0.00 49 1005.4
20260504205000 79 270 2.6 3.5 0.00 0.00 0.00 51 1005.3
20260504204458 79 210 6.1 8.7 0.00 0.00 0.00 53 1005.6
20260504203957 80 193 4.3 7.0 0.00 0.00 0.00 53 1005.4
20260504203454 79 341 3.5 6.1 0.00 0.00 0.00 49 1005.5
20260504202950 79 243 6.1 7.0 0.00 0.00 0.00 50 1005.6
20260504202446 79 222 7.0 8.7 0.00 0.00 0.00 51 1005.5
20260504201943 80 144 9.6 12.2 0.00 0.00 0.00 49 1005.9
20260504201441 79 267 2.6 4.3 0.00 0.00 0.00 52 1005.9
20260504200938 79 278 3.5 4.3 0.00 0.00 0.00 52 1006.0
20260504200435 79 283 11.3 15.6 0.00 0.00 0.00 49 1006.1
20260504195931 78 213 7.0 10.4 0.00 0.00 0.00 52 1006.2
20260504195427 79 211 9.6 13.0 0.00 0.00 0.00 50 1006.1
20260504194924 78 105 7.8 13.0 0.00 0.00 0.00 52 1006.0
20260504194420 80 163 7.8 9.6 0.00 0.00 0.00 50 1006.1
20260504193916 79 192 3.5 4.3 0.00 0.00 0.00 53 1006.1
20260504193414 78 206 12.2 18.2 0.00 0.00 0.00 50 1006.1
20260504192912 78 178 4.3 8.7 0.00 0.00 0.00 51 1006.1
20260504192409 78 188 7.8 12.2 0.00 0.00 0.00 50 1006.3
20260504191908 78 185 10.4 13.0 0.00 0.00 0.00 50 1006.3
20260504191405 78 204 9.6 12.2 0.00 0.00 0.00 49 1006.1
20260504190900 78 279 14.8 20.0 0.00 0.00 0.00 48 1006.4
20260504190356 78 269 7.8 12.2 0.00 0.00 0.00 51 1006.3
20260504185853 79 233 7.8 13.0 0.00 0.00 0.00 50 1006.3
20260504185350 78 187 5.2 6.1 0.00 0.00 0.00 51 1006.4
20260504184846 78 238 9.6 15.6 0.00 0.00 0.00 49 1006.5
20260504184342 78 199 3.5 7.0 0.00 0.00 0.00 53 1006.4
20260504183838 77 190 13.0 16.5 0.00 0.00 0.00 50 1006.9
20260504183336 78 262 7.8 10.4 0.00 0.00 0.00 49 1006.8
20260504182833 77 208 13.0 16.5 0.00 0.00 0.00 50 1006.9
20260504182331 77 231 9.6 15.6 0.00 0.00 0.00 51 1006.5
20260504181827 77 211 7.8 10.4 0.00 0.00 0.00 51 1006.9
20260504181325 77 156 10.4 12.2 0.00 0.00 0.00 52 1006.9
20260504180824 77 203 8.7 10.4 0.00 0.00 0.00 50 1007.1
20260504180322 77 180 6.1 9.6 0.00 0.00 0.00 52 1007.1
20260504175820 77 213 9.6 12.2 0.00 0.00 0.00 50 1007.0
20260504175316 77 221 7.0 9.6 0.00 0.00 0.00 50 1007.0
20260504174815 76 189 11.3 13.0 0.00 0.00 0.00 49 1007.0
20260504174311 76 145 10.4 13.9 0.00 0.00 0.00 51 1007.2
20260504173808 76 191 6.1 9.6 0.00 0.00 0.00 52 1007.3
20260504173305 76 200 7.0 8.7 0.00 0.00 0.00 54 1007.3
20260504172802 76 251 13.9 18.2 0.00 0.00 0.00 50 1007.5
20260504172259 76 207 5.2 7.0 0.00 0.00 0.00 51 1007.2
20260504171754 76 223 12.2 18.2 0.00 0.00 0.00 51 1007.4
20260504171252 76 147 8.7 12.2 0.00 0.00 0.00 51 1007.7
20260504170749 75 213 7.8 12.2 0.00 0.00 0.00 53 1007.3
20260504170246 75 213 7.0 8.7 0.00 0.00 0.00 54 1007.6
20260504160204 74 233 3.5 4.3 0.00 0.00 0.00 51 1008.0